Location: Bacharowice
(49.9333°N, 19.5833°E)
Time: 08:14:49
(UTC+00:00)

Cosmos 1602 - Pass Details

Date: 11 May 2021
Orbit: 514 x 532 km, 82.5° (Epoch: 21 June)

Event Time Altitude Azimuth Distance (km) Brightness Sun altitude
Rises 18:44:10 0° 354° (N) 2,657 8.0 -4.7°
Reaches altitude 10° 18:46:23 10° 1° (N) 1,767 6.9 -5.0°
Maximum altitude 18:50:07 45° 75° (ENE) 721 4.2 -5.5°
Drops below altitude 10° 18:53:51 10° 150° (SSE) 1,763 5.8 -6.0°
Enters shadow 18:54:50 - 153° (SSE) 2,157 6.3 -6.1°
